Location: Audinghen
(50.8518°N, 1.6129°E)
Time: 06:16:42
(UTC+00:00)

Lacrosse 4 Rocket - Pass Details

Date: 07 August 2020
Orbit: 544 x 615 km, 68.0° (Epoch: 23 September)

Event Time Altitude Azimuth Distance (km) Brightness Sun altitude
Exits shadow 01:49:14 15° 274° (W) 1,584 3.4 -18.6°
Maximum altitude 01:51:43 25° 320° (NW) 1,188 3.2 -18.5°
Drops below altitude 10° 01:55:12 10° 17° (NNE) 1,869 5.2 -18.2°
Sets 01:57:43 0° 31° (NNE) 2,756 6.6 -18.0°
